When you browse on this site, cookies collect data to enhance your experience and personalize the content and advertising you see.
Visit our Privacy Policy to learn more. By continuing to use the site, you agree to this use of cookies and data.
EN

Hourly Weather Leipzig

Today, 12 August, Wednesday

Time Temperature Precipitation Wind Pressure Humidity
00:00 +23°C° 0 mm 2 mps 753 mmHg 74%
01:00 +21°C° 0 mm 2 mps 754 mmHg 77%
02:00 +21°C° 0 mm 2 mps 753 mmHg 78%
03:00 +21°C° 0 mm 2 mps 753 mmHg 79%
04:00 +20°C° 0 mm 2 mps 753 mmHg 79%
05:00 +21°C° 0 mm 2 mps 753 mmHg 77%
06:00 +23°C° 0 mm 2 mps 753 mmHg 75%
07:00 +24°C° 0 mm 2 mps 753 mmHg 71%
08:00 +26°C° 0 mm 3 mps 753 mmHg 64%
09:00 +28°C° 0 mm 4 mps 753 mmHg 56%
10:00 +30°C° 0 mm 4 mps 753 mmHg 49%
11:00 +30°C° 0 mm 4 mps 753 mmHg 46%
12:00 +32°C° 0 mm 4 mps 753 mmHg 43%
13:00 +33°C° 0 mm 4 mps 753 mmHg 41%
14:00 +33°C° 0 mm 4 mps 753 mmHg 40%
15:00 +33°C° 0 mm 4 mps 753 mmHg 40%
16:00 +33°C° 0 mm 3 mps 752 mmHg 39%
17:00 +31°C° 0 mm 3 mps 752 mmHg 45%
18:00 +29°C° 0 mm 3 mps 752 mmHg 50%
19:00 +28°C° 0 mm 3 mps 752 mmHg 55%
20:00 +26°C° 0.1 mm 3 mps 752 mmHg 60%
21:00 +25°C° 0.1 mm 3 mps 752 mmHg 64%
22:00 +24°C° 0.1 mm 3 mps 752 mmHg 69%
23:00 +22°C° 0.1 mm 3 mps 752 mmHg 71%

Tomorrow, 13 August, Thursday

Time Temperature Precipitation Wind Pressure Humidity
00:00 +23°C° 0.1 mm 2 mps 752 mmHg 73%
01:00 +23°C° 0.1 mm 2 mps 752 mmHg 75%
02:00 +21°C° 0.2 mm 2 mps 751 mmHg 75%
03:00 +21°C° 0.2 mm 2 mps 751 mmHg 76%
04:00 +22°C° 0.2 mm 1 mps 751 mmHg 76%
05:00 +23°C° 0 mm 1 mps 751 mmHg 74%
06:00 +24°C° 0 mm 2 mps 751 mmHg 72%
07:00 +24°C° 0 mm 2 mps 751 mmHg 69%
08:00 +26°C° 0 mm 2 mps 751 mmHg 62%
09:00 +28°C° 0 mm 2 mps 751 mmHg 55%
10:00 +30°C° 0 mm 2 mps 751 mmHg 48%
11:00 +31°C° 0 mm 1 mps 750 mmHg 44%
12:00 +32°C° 0 mm 1 mps 750 mmHg 41%
13:00 +33°C° 0 mm 1 mps 750 mmHg 37%
14:00 +33°C° 0 mm 1 mps 750 mmHg 37%
15:00 +33°C° 0 mm 1 mps 750 mmHg 38%
16:00 +33°C° 0 mm 1 mps 749 mmHg 38%
17:00 +31°C° 0.5 mm 1 mps 749 mmHg 44%
18:00 +29°C° 0.5 mm 1 mps 749 mmHg 51%
19:00 +28°C° 0.5 mm 1 mps 749 mmHg 58%
20:00 +26°C° 0.4 mm 2 mps 749 mmHg 64%
21:00 +24°C° 0.4 mm 2 mps 750 mmHg 71%
22:00 +22°C° 0.4 mm 3 mps 750 mmHg 78%
23:00 +23°C° 0.5 mm 2 mps 750 mmHg 79%

Day after tomorrow, 14 August, Friday

Time Temperature Precipitation Wind Pressure Humidity
00:00 +21°C° 0.5 mm 2 mps 750 mmHg 79%
01:00 +22°C° 0.5 mm 1 mps 749 mmHg 80%
02:00 +22°C° 0.3 mm 1 mps 749 mmHg 80%
03:00 +22°C° 0.3 mm 1 mps 749 mmHg 79%
04:00 +22°C° 0.3 mm 1 mps 749 mmHg 79%
05:00 +23°C° 0.3 mm 1 mps 749 mmHg 78%
06:00 +23°C° 0.3 mm 1 mps 749 mmHg 78%
07:00 +23°C° 0.3 mm 1 mps 749 mmHg 77%
08:00 +24°C° 0.1 mm 1 mps 749 mmHg 75%
09:00 +25°C° 0.1 mm 1 mps 749 mmHg 73%
10:00 +25°C° 0.1 mm 1 mps 750 mmHg 71%
11:00 +26°C° 0.1 mm 1 mps 749 mmHg 68%
12:00 +27°C° 0.1 mm 1 mps 749 mmHg 64%
13:00 +28°C° 0.1 mm 1 mps 749 mmHg 61%
14:00 +28°C° 0.4 mm 1 mps 749 mmHg 60%
15:00 +28°C° 0.4 mm 1 mps 749 mmHg 59%
16:00 +28°C° 0.4 mm 1 mps 749 mmHg 59%
17:00 +27°C° 0.2 mm 2 mps 749 mmHg 64%
18:00 +26°C° 0.2 mm 2 mps 749 mmHg 70%
19:00 +25°C° 0.2 mm 2 mps 749 mmHg 76%
20:00 +24°C° 0.3 mm 2 mps 749 mmHg 79%
21:00 +23°C° 0.3 mm 1 mps 749 mmHg 81%
22:00 +22°C° 0.3 mm 1 mps 750 mmHg 84%
23:00 +22°C° 0.4 mm 1 mps 749 mmHg 85%

15 August, Saturday

Time Temperature Precipitation Wind Pressure Humidity
00:00 +22°C° 0.4 mm 1 mps 749 mmHg 86%
01:00 +21°C° 0.4 mm 1 mps 749 mmHg 87%
02:00 +21°C° 0.2 mm 1 mps 749 mmHg 87%
03:00 +21°C° 0.2 mm 1 mps 749 mmHg 88%
04:00 +19°C° 0.2 mm 0 mps 749 mmHg 88%
05:00 +21°C° 0.3 mm 1 mps 750 mmHg 86%
06:00 +22°C° 0.3 mm 1 mps 750 mmHg 84%
07:00 +23°C° 0.3 mm 1 mps 750 mmHg 82%
08:00 +24°C° 0.3 mm 1 mps 750 mmHg 77%
09:00 +25°C° 0.3 mm 1 mps 750 mmHg 71%
10:00 +27°C° 0.3 mm 1 mps 751 mmHg 65%
11:00 +27°C° 0.9 mm 1 mps 750 mmHg 61%
12:00 +28°C° 0.9 mm 2 mps 750 mmHg 57%
13:00 +29°C° 0.9 mm 2 mps 750 mmHg 53%
14:00 +29°C° 0.5 mm 2 mps 750 mmHg 53%
15:00 +29°C° 0.5 mm 2 mps 750 mmHg 54%
16:00 +29°C° 0.5 mm 2 mps 750 mmHg 54%
17:00 +27°C° 0.2 mm 2 mps 750 mmHg 57%
18:00 +26°C° 0.2 mm 2 mps 750 mmHg 60%
19:00 +25°C° 0.2 mm 2 mps 750 mmHg 63%
20:00 +24°C° 0 mm 2 mps 750 mmHg 65%
21:00 +23°C° 0 mm 2 mps 750 mmHg 66%
22:00 +21°C° 0 mm 2 mps 750 mmHg 68%
23:00 +20°C° 0 mm 2 mps 750 mmHg 69%

16 August, Sunday

Time Temperature Precipitation Wind Pressure Humidity
00:00 +20°C° 0 mm 2 mps 750 mmHg 71%
01:00 +20°C° 0 mm 1 mps 750 mmHg 72%
02:00 +20°C° 0 mm 1 mps 750 mmHg 74%
03:00 +18°C° 0 mm 2 mps 750 mmHg 76%
04:00 +18°C° 0 mm 2 mps 750 mmHg 78%
05:00 +19°C° 0 mm 2 mps 750 mmHg 77%
06:00 +19°C° 0 mm 2 mps 750 mmHg 76%
07:00 +20°C° 0 mm 2 mps 750 mmHg 75%
08:00 +21°C° 0 mm 2 mps 750 mmHg 68%
09:00 +24°C° 0 mm 3 mps 750 mmHg 62%
10:00 +26°C° 0 mm 3 mps 750 mmHg 55%
11:00 +27°C° 0 mm 3 mps 750 mmHg 51%
12:00 +28°C° 0 mm 3 mps 750 mmHg 47%
13:00 +29°C° 0 mm 2 mps 749 mmHg 43%
14:00 +29°C° 0 mm 2 mps 749 mmHg 43%
15:00 +29°C° 0 mm 2 mps 749 mmHg 42%
16:00 +29°C° 0 mm 2 mps 749 mmHg 41%
17:00 +28°C° 0 mm 2 mps 749 mmHg 48%
18:00 +27°C° 0 mm 2 mps 748 mmHg 54%
19:00 +25°C° 0 mm 2 mps 748 mmHg 60%
20:00 +24°C° 0 mm 2 mps 748 mmHg 64%
21:00 +23°C° 0 mm 2 mps 748 mmHg 68%
22:00 +22°C° 0 mm 1 mps 748 mmHg 72%
23:00 +22°C° 0 mm 1 mps 748 mmHg 74%

17 August, Monday

Time Temperature Precipitation Wind Pressure Humidity
00:00 +22°C° 0 mm 1 mps 748 mmHg 77%
01:00 +21°C° 0 mm 1 mps 748 mmHg 80%
02:00 +21°C° 0 mm 1 mps 748 mmHg 80%
03:00 +21°C° 0 mm 1 mps 747 mmHg 81%
04:00 +19°C° 0 mm 2 mps 747 mmHg 82%
05:00 +20°C° 0 mm 2 mps 747 mmHg 79%
06:00 +21°C° 0 mm 2 mps 747 mmHg 76%
07:00 +23°C° 0 mm 2 mps 747 mmHg 73%
08:00 +24°C° 0 mm 2 mps 747 mmHg 67%
09:00 +26°C° 0 mm 2 mps 747 mmHg 62%
10:00 +28°C° 0 mm 2 mps 747 mmHg 56%
11:00 +29°C° 0 mm 2 mps 747 mmHg 51%
12:00 +30°C° 0 mm 2 mps 747 mmHg 47%
13:00 +31°C° 0 mm 2 mps 746 mmHg 42%
14:00 +31°C° 0.1 mm 3 mps 746 mmHg 46%
15:00 +30°C° 0.1 mm 3 mps 746 mmHg 50%
16:00 +29°C° 0.1 mm 4 mps 746 mmHg 54%
17:00 +27°C° 0.5 mm 3 mps 746 mmHg 59%
18:00 +26°C° 0.5 mm 3 mps 746 mmHg 65%
19:00 +25°C° 0.5 mm 3 mps 746 mmHg 70%
20:00 +24°C° 0.1 mm 3 mps 746 mmHg 73%
21:00 +22°C° 0.1 mm 3 mps 746 mmHg 76%
22:00 +21°C° 0.1 mm 3 mps 747 mmHg 79%
23:00 +21°C° 0 mm 3 mps 747 mmHg 81%
Show more